Location: Barrio Las Umbrías
(40.4173°N, 4.8685°W)
Time: 12:33:57
(UTC+00:00)

Spot 2 Rocket - Pass Details

Date: 17 August 2022
Orbit: 756 x 772 km, 98.5° (Epoch: 28 September)

Event Time Altitude Azimuth Distance (km) Brightness Sun altitude
Exits shadow 22:12:30 59° 262° (W) 882 3.8 -28.4°
Drops below altitude 10° 22:17:28 10° 339° (NNW) 2,308 6.9 -29.0°
Sets 22:19:49 0° 343° (NNW) 3,236 7.8 -29.2°
